Location: Boiro
(42.6475°N, 8.8834°W)
Time: 04:28:46
(UTC+01:00)

Vanguard 1 Rocket - Pass Details

Date: 12 December 2021
Orbit: 651 x 4224 km, 34.3° (Epoch: 21 January)

Event Time Altitude Azimuth Distance (km) Brightness Sun altitude
Rises 09:41:14 0° 273° (W) 6,424 11.2 5.9°
Reaches altitude 10° 09:46:54 10° 258° (WSW) 5,983 11.2 6.7°
Maximum altitude 09:59:03 20° 221° (SW) 6,064 11.7 8.4°
Drops below altitude 10° 10:14:08 10° 184° (S) 7,406 12.7 10.4°
Sets 10:22:57 0° 170° (S) 8,401 13.4 11.5°
